Lid_Strength_Index
-1 -1 -1 -1 -1 -1 -1 -1 -1 -1 -1 -1 -1 -1 -1 -0 -0 4 6 3 3 1 3 7 8 9 8 9 9 9 13 15 14 14 12 9 9 9 8 6 7 5 5 3 2
-1 -1 -1 -0 -0 -0 -1 -1 -1 -1 -1 -1 -1 -1 -1 -0 4 5 2 1 1 1 6 8 8 9 10 10 10 11 14 14 12 12 13 10 9 10 9 7 7 6 4 3 2
-1 -1 -1 -1 -0 -0 -1 -1 -1 -1 -1 -1 -1 -1 -1 2 4 6 0 1 -0 2 5 6 8 9 11 10 10 11 13 12 12 12 12 12 9 9 9 9 7 6 6 4 3
-1 -1 -1 -1 -1 -0 -1 -1 -1 -1 -1 -1 -1 -1 1 3 11 6 1 -1 -0 5 7 7 8 10 12 12 11 10 11 12 11 11 12 12 10 10 9 8 7 5 4 4 4
-1 -1 -1 -1 -1 -0 -0 1 -1 -1 -1 -0 -1 0 5 8 7 5 -0 -0 1 6 8 9 9 10 11 12 12 13 12 11 12 12 12 12 12 10 10 9 7 4 4 4 4
-1 -1 -1 -1 -1 -1 0 0 -0 -1 -1 -1 -0 1 6 9 4 4 1 2 5 8 8 9 9 9 10 11 12 11 11 12 13 12 12 13 13 11 9 7 5 5 5 4 4
-1 -1 -1 -1 -1 -0 0 1 0 -1 -1 -1 0 3 6 6 5 2 1 3 6 7 8 6 8 9 11 12 11 12 12 11 12 13 13 12 14 13 10 7 6 6 5 5 4
-1 -1 -1 -1 -0 -0 0 1 1 -1 -1 -0 1 4 7 5 3 3 3 5 6 7 6 6 6 8 9 10 11 14 13 13 12 13 13 13 15 12 11 9 6 6 6 5 4
-1 -1 -1 -1 0 1 1 1 1 -1 -1 -0 3 5 8 2 5 4 4 5 8 8 7 7 7 9 9 11 14 14 17 15 14 14 14 14 14 12 12 10 10 6 6 6 5
-1 -1 -1 -1 -0 0 1 1 1 -0 0 2 3 6 8 8 6 5 5 5 7 9 9 9 10 12 12 12 15 16 17 16 16 14 15 16 14 12 13 12 11 10 6 6 5
-1 -1 -1 -1 0 1 1 3 5 6 4 7 8 8 8 7 5 6 5 7 8 10 12 12 14 14 14 12 13 12 14 16 15 14 15 15 15 13 13 14 13 12 10 6 6
-1 -1 -1 -1 1 1 2 6 4 4 9 6 6 9 8 6 9 8 6 9 9 11 11 12 13 11 12 11 12 12 13 13 12 13 15 16 16 14 14 14 13 12 11 10 6
-1 -1 -1 -1 1 3 4 6 1 2 8 9 7 9 8 7 9 9 7 11 10 12 12 13 13 11 11 13 13 15 14 15 13 14 14 14 13 14 14 14 14 14 12 11 10
-1 -1 -1 -1 4 4 5 3 1 3 12 12 9 9 9 8 10 8 8 10 12 12 11 12 12 12 13 13 12 15 12 14 14 15 17 14 18 15 13 14 15 13 14 12 11
0 -0 -0 -0 4 6 5 1 2 5 20 11 10 7 9 9 10 10 9 10 13 13 12 14 13 13 13 13 11 13 12 13 14 16 17 18 18 17 16 16 14 14 13 13 12
0 0 0 3 4 4 3 1 4 14 20 14 11 12 11 11 12 11 10 10 11 12 12 14 13 12 12 11 11 12 13 12 14 16 18 17 18 19 16 15 15 14 13 12 11
1 1 2 2 6 3 2 4 14 18 14 16 14 12 12 13 13 11 12 14 15 17 16 15 16 14 12 13 13 13 14 18 19 19 19 20 19 14 14 15 14 14 13 13 13
0 0 2 3 2 3 4 10 18 16 15 13 12 12 14 13 14 13 12 14 15 15 16 17 18 16 14 14 15 14 13 17 22 22 20 19 19 17 14 11 14 15 15 15 14
1 3 4 3 3 4 7 15 16 14 13 14 13 14 16 14 14 13 13 14 15 15 17 17 17 15 14 14 12 15 15 13 18 25 22 19 18 15 14 14 14 14 15 14 14
3 5 5 3 3 5 11 14 15 12 12 12 15 14 17 16 16 14 14 12 14 14 14 15 17 15 15 13 14 13 12 16 16 23 24 20 20 18 16 14 13 14 14 14 14
3 7 5 3 3 8 14 14 15 13 11 13 15 17 15 16 16 15 15 15 14 15 14 15 15 17 15 16 17 15 14 16 14 18 21 23 19 16 15 15 15 14 14 13 13
5 10 4 3 10 10 12 14 11 12 12 14 14 15 14 15 17 17 16 15 12 14 15 14 15 18 17 15 15 14 14 15 17 20 19 19 18 15 15 15 14 13 13 13 12
7 8 3 4 13 13 13 13 12 12 14 14 15 14 12 14 17 16 16 13 11 11 13 13 17 21 17 16 15 16 16 13 15 16 18 20 17 15 14 14 14 13 13 13 12
8 11 8 7 9 12 14 13 14 12 13 14 14 12 14 14 15 16 15 13 11 10 9 10 15 16 18 17 15 16 16 15 14 17 16 16 15 14 13 15 14 13 13 13 12
9 11 9 13 12 11 12 13 14 14 13 13 14 13 14 16 16 16 15 14 13 10 11 12 17 16 16 15 15 15 15 16 15 14 16 15 15 13 14 14 13 13 13 12 11
12 10 9 11 10 11 11 13 14 14 14 15 14 13 13 15 14 16 14 15 15 13 13 13 19 16 19 15 15 16 15 14 14 13 14 15 15 13 13 13 13 12 11 11 11
8 8 8 10 10 12 12 13 13 12 13 13 12 13 15 14 12 11 11 11 11 11 12 13 16 19 19 17 16 19 15 15 14 13 14 16 13 13 14 13 12 12 11 11 10